Weather History for Maxwell AFB, AL

Change the Weather History Date:

Friday, December 6, 2013

  Actual Average Record
Temperature  
Mean Temperature 66 °F -  
Max Temperature 81 °F 60 °F 81 °F (2013)
Min Temperature 50 °F 42 °F 29 °F (2010)
Growing Degree Days 16 (Base 50)    
Moisture  
Dew Point 62 °F    
Average Humidity 85    
Maximum Humidity 100    
Minimum Humidity 61    
Precipitation  
Precipitation 0.23 in - - ()
Sea Level Pressure  
Sea Level Pressure 30.06 in    
Wind  
Wind Speed 10 mph (SW)    
Max Wind Speed 17 mph    
Max Gust Speed 30 mph    
Visibility 10 miles    
Events Rain    
Averages and records for this station are not official NWS values.
T = Trace of Precipitation, MM = Missing Value Source: NWS Daily Summary

Daily Weather History Graph

Daily Weather History Graph

Search for Another Location

Airport:

Trip Planner

Search our weather history database for the weather conditions in past years. The results will help you decide how hot, cold, wet, or windy it might be!

Date:

Astronomy

Dec. 06, 2013 Rise Set
Actual Time 6:33 AM CST 4:40 PM CST
Civil Twilight 6:06 AM CST 5:06 PM CST
Nautical Twilight 5:35 AM CST 5:37 PM CST
Astronomical Twilight 5:05 AM CST 6:07 PM CST
Moon 9:46 AM CST (12/6) 9:02 PM CST (12/6)
Length of Visible Light 11h 00m
Length of Day
10h 06m
Waxing Crescent, 19% of the Moon is Illuminated
Dec 6
Waxing Crescent
Dec 9
First Quarter
Dec 17
Full
Dec 25
Last Quarter
Jan 1
New

Hourly Weather History & Observations

Time (CST) Temp. Heat Index Dew Point Humidity Pressure Visibility Wind Dir Wind Speed Gust Speed Precip Events Conditions
12:08 AM 73.4 °F - 69.8 °F 88% 30.01 in 10.0 mi South 9.2 mph - N/A   Mostly Cloudy
12:38 AM 73.4 °F - 69.8 °F 88% 30.00 in 10.0 mi South 9.2 mph - N/A   Overcast
12:43 AM 73.4 °F - 69.8 °F 88% 30.00 in 10.0 mi South 8.1 mph - N/A   Mostly Cloudy
12:58 AM 72.9 °F - 68.9 °F 87% 30.01 in 10.0 mi South 8.1 mph - N/A   Overcast
1:58 AM 72.9 °F - 68.5 °F 86% 30.01 in 10.0 mi South 9.2 mph - N/A   Overcast
2:23 AM 71.6 °F - 68.0 °F 88% 30.00 in 10.0 mi South 9.2 mph - N/A   Scattered Clouds
2:33 AM 71.6 °F - 68.0 °F 88% 29.99 in 10.0 mi South 8.1 mph - N/A   Mostly Cloudy
2:58 AM 71.6 °F - 68.2 °F 89% 30.00 in 10.0 mi South 8.1 mph - N/A   Scattered Clouds
3:58 AM 71.2 °F - 68.5 °F 91% 30.00 in 10.0 mi South 6.9 mph - N/A   Scattered Clouds
4:58 AM 71.1 °F - 68.7 °F 92% 30.01 in 10.0 mi South 5.8 mph - N/A   Mostly Cloudy
5:58 AM 70.7 °F - 68.5 °F 93% 30.03 in 10.0 mi South 6.9 mph - N/A   Mostly Cloudy
6:58 AM 71.4 °F - 68.7 °F 91% 30.03 in 10.0 mi South 9.2 mph - N/A   Mostly Cloudy
7:58 AM 73.6 °F - 69.3 °F 86% 30.05 in 10.0 mi South 9.2 mph - N/A   Scattered Clouds
8:38 AM 73.4 °F - 69.8 °F 88% 30.04 in 10.0 mi South 10.4 mph - N/A   Mostly Cloudy
8:48 AM 75.2 °F - 69.8 °F 83% 30.04 in 10.0 mi South 9.2 mph - N/A   Mostly Cloudy
8:53 AM 75.2 °F - 69.8 °F 83% 30.05 in 10.0 mi South 9.2 mph - N/A   Mostly Cloudy
8:58 AM 75.6 °F - 69.1 °F 80% 30.06 in 10.0 mi South 11.5 mph - N/A   Mostly Cloudy
9:03 AM 75.2 °F - 69.8 °F 83% 30.05 in 10.0 mi South 10.4 mph - N/A   Overcast
9:13 AM 75.2 °F - 68.0 °F 78% 30.05 in 10.0 mi SSW 11.5 mph - N/A   Overcast
9:18 AM 75.2 °F - 69.8 °F 83% 30.05 in 10.0 mi South 10.4 mph - N/A   Overcast
9:33 AM 77.0 °F - 69.8 °F 78% 30.04 in 10.0 mi SSW 12.7 mph - N/A   Overcast
9:58 AM 76.5 °F - 68.7 °F 77% 30.05 in 10.0 mi SSW 13.8 mph 20.7 mph N/A   Mostly Cloudy
10:03 AM 77.0 °F - 68.0 °F 74% 30.04 in 10.0 mi South 10.4 mph 20.7 mph N/A   Mostly Cloudy
10:14 AM 77.0 °F - 68.0 °F 74% 30.04 in 10.0 mi South 10.4 mph 17.3 mph N/A   Light Drizzle
10:23 AM 77.0 °F - 68.0 °F 74% 30.04 in 10.0 mi SSW 11.5 mph - N/A   Overcast
10:32 AM 75.2 °F - 68.0 °F 78% 30.04 in 9.0 mi SSW 6.9 mph - N/A Rain Light Rain
10:44 AM 77.0 °F - 69.8 °F 78% 30.03 in 10.0 mi South 8.1 mph - N/A   Overcast
10:54 AM 77.0 °F - 69.8 °F 78% 30.02 in 10.0 mi SSW 9.2 mph - N/A   Overcast
10:58 AM 77.5 °F - 68.9 °F 75% 30.03 in 10.0 mi SSW 8.1 mph - 0.00 in   Overcast
11:43 AM 78.8 °F - 68.0 °F 69% 30.01 in 10.0 mi South 16.1 mph 23.0 mph N/A   Mostly Cloudy
11:53 AM 78.8 °F - 68.0 °F 69% 30.01 in 10.0 mi South 13.8 mph 23.0 mph N/A   Mostly Cloudy
11:58 AM 79.5 °F - 67.3 °F 66% 30.02 in 10.0 mi SSW 15.0 mph - N/A   Mostly Cloudy
12:03 PM 78.8 °F - 68.0 °F 69% 30.00 in 10.0 mi South 15.0 mph 24.2 mph N/A   Mostly Cloudy
12:58 PM 80.6 °F 82.9 °F 66.9 °F 63% 29.99 in 10.0 mi South 15.0 mph 26.5 mph N/A   Mostly Cloudy
1:58 PM 81.1 °F 83.5 °F 66.9 °F 62% 29.98 in 10.0 mi SSW 10.4 mph 21.9 mph N/A   Scattered Clouds
2:58 PM 81.3 °F 83.6 °F 66.7 °F 61% 29.98 in 10.0 mi SSW 15.0 mph 20.7 mph N/A   Mostly Cloudy
3:58 PM 79.9 °F - 67.3 °F 65% 29.99 in 10.0 mi SSW 9.2 mph - N/A   Overcast
4:58 PM 77.5 °F - 67.6 °F 71% 30.00 in 10.0 mi SSW 11.5 mph - N/A   Clear
5:58 PM 76.3 °F - 68.0 °F 75% 30.01 in 10.0 mi SSW 9.2 mph - N/A   Mostly Cloudy
6:58 PM 75.2 °F - 68.4 °F 79% 30.01 in 10.0 mi South 10.4 mph - N/A   Partly Cloudy
7:03 PM 75.2 °F - 68.0 °F 78% 30.01 in 6.0 mi SSW 13.8 mph 18.4 mph N/A Rain Light Rain
7:08 PM 73.4 °F - 69.8 °F 88% 30.02 in 2.0 mi West 12.7 mph 21.9 mph N/A Rain Heavy Rain
7:13 PM 71.6 °F - 68.0 °F 88% 30.02 in 2.5 mi WSW 12.7 mph 21.9 mph N/A Rain Light Rain
7:18 PM 69.8 °F - 68.0 °F 94% 30.02 in 8.0 mi WNW 15.0 mph 21.9 mph N/A Rain Light Rain
7:23 PM 68.0 °F - 64.4 °F 88% 30.05 in 10.0 mi WNW 15.0 mph 23.0 mph N/A   Light Drizzle
7:26 PM 64.4 °F - 62.6 °F 94% 30.06 in 10.0 mi WNW 17.3 mph 26.5 mph N/A   Overcast
7:41 PM 57.2 °F - 55.4 °F 94% 30.08 in 10.0 mi WNW 15.0 mph 29.9 mph N/A   Overcast
7:58 PM 57.0 °F - 54.7 °F 92% 30.10 in 10.0 mi WNW 12.7 mph - 0.16 in   Overcast
7:59 PM 57.2 °F - 53.6 °F 88% 30.09 in 10.0 mi NW 10.4 mph - N/A   Light Drizzle
8:04 PM 57.2 °F - 53.6 °F 88% 30.09 in 10.0 mi WNW 6.9 mph - N/A   Light Drizzle
8:12 PM 57.2 °F - 53.6 °F 88% 30.09 in 10.0 mi NW 4.6 mph - N/A   Overcast
8:21 PM 57.2 °F - 55.4 °F 94% 30.09 in 10.0 mi NW 3.5 mph - N/A   Light Drizzle
8:41 PM 57.2 °F - 55.4 °F 94% 30.10 in 6.0 mi WNW 6.9 mph - N/A Rain Light Rain
8:51 PM 57.2 °F - 55.4 °F 94% 30.10 in 10.0 mi Variable 3.5 mph - N/A   Overcast
8:58 PM 56.7 °F - 54.7 °F 93% 30.12 in 10.0 mi WNW 4.6 mph - 0.01 in   Overcast
9:23 PM 55.4 °F - 53.6 °F 94% 30.11 in 10.0 mi Variable 4.6 mph - N/A   Light Drizzle
9:37 PM 55.4 °F - 53.6 °F 94% 30.11 in 10.0 mi West 4.6 mph - N/A   Overcast
9:42 PM 55.4 °F - 53.6 °F 94% 30.12 in 10.0 mi West 4.6 mph - N/A Rain Light Rain
9:58 PM 55.0 °F - 53.1 °F 93% 30.14 in 7.0 mi West 6.9 mph - 0.00 in Rain Light Rain
10:03 PM 55.4 °F - 53.6 °F 94% 30.13 in 5.0 mi WNW 5.8 mph - N/A Rain Light Rain
10:37 PM 53.6 °F - 53.6 °F 100% 30.14 in 10.0 mi WNW 5.8 mph - N/A   Overcast
10:52 PM 53.6 °F - 51.8 °F 94% 30.14 in 10.0 mi NW 9.2 mph - N/A   Overcast
10:58 PM 53.1 °F - 51.4 °F 94% 30.15 in 10.0 mi NW 11.5 mph 18.4 mph 0.06 in   Overcast
11:08 PM 51.8 °F - 50.0 °F 94% 30.15 in 10.0 mi NW 10.4 mph - N/A   Overcast
11:23 PM 51.8 °F - 50.0 °F 94% 30.15 in 10.0 mi WNW 8.1 mph - N/A   Overcast
11:28 PM 51.8 °F - 50.0 °F 94% 30.15 in 10.0 mi WNW 8.1 mph - N/A   Overcast
11:37 PM 50.0 °F - 48.2 °F 94% 30.15 in 10.0 mi NW 10.4 mph - N/A Rain Light Rain
11:42 PM 50.0 °F - 48.2 °F 94% 30.15 in 10.0 mi NW 8.1 mph - N/A Rain Light Rain
11:47 PM 50.0 °F - 48.2 °F 94% 30.15 in 10.0 mi NW 6.9 mph - N/A Rain Light Rain
11:52 PM 50.0 °F - 48.2 °F 94% 30.16 in 10.0 mi WNW 9.2 mph - N/A   Light Drizzle
11:54 PM 50.0 °F - 48.2 °F 94% 30.16 in 10.0 mi NW 9.2 mph - N/A   Overcast
11:58 PM 50.4 °F - 48.2 °F 92% 30.17 in 10.0 mi WNW 9.2 mph - 0.00 in   Overcast